AME4536 LIMJ-LDZA

Flight info

Callsign AME4536
Flight time 0h 37m
Altitude 36000
Route ITCAP LURUT DCT PUL DCT RJK T742 KOTOR
Aircraft A310/H-SDFGHIM1RTUWXY/LB1

Departure

Time 2026-04-26 18:18
Airport Genoa Cristoforo Colombo Airport (LIMJ)

Arrival

Time 2026-04-26 18:55
Airport Zagreb Franjo Tuđman International Airport (LDZA)
Time Latitude Longitude Altitude Speed Heading
2026-04-26 17:54 44.41368 8.85208 26 ft 0 kts 15°
2026-04-26 18:10 44.41375 8.85217 30 ft 2 kts 45°
2026-04-26 18:10 44.41374 8.85247 31 ft 4 kts 118°
2026-04-26 18:11 44.41342 8.85257 30 ft 5 kts 183°
2026-04-26 18:11 44.41301 8.85265 28 ft 7 kts 166°
2026-04-26 18:11 44.41249 8.85277 29 ft 8 kts 180°
2026-04-26 18:11 44.41186 8.85263 28 ft 8 kts 195°
2026-04-26 18:12 44.41164 8.85255 30 ft 0 kts 195°
2026-04-26 18:13 44.41157 8.85252 30 ft 3 kts 195°
2026-04-26 18:13 44.41124 8.85240 25 ft 3 kts 195°
2026-04-26 18:13 44.41123 8.85240 25 ft 0 kts 195°
2026-04-26 18:15 44.41123 8.85239 25 ft 1 kts 195°
2026-04-26 18:15 44.41096 8.85229 26 ft 7 kts 195°
2026-04-26 18:16 44.41045 8.85191 25 ft 10 kts 214°
2026-04-26 18:16 44.41019 8.85089 24 ft 7 kts 284°
2026-04-26 18:16 44.41030 8.85022 25 ft 7 kts 283°
2026-04-26 18:17 44.41052 8.84909 25 ft 25 kts 285°
2026-04-26 18:17 44.41165 8.84336 27 ft 98 kts 286°
2026-04-26 18:17 44.41411 8.83109 35 ft 161 kts 284°
2026-04-26 18:17 44.41674 8.81520 564 ft 173 kts 267°
2026-04-26 18:18 44.41228 8.79949 1217 ft 181 kts 227°
2026-04-26 18:18 44.40199 8.78991 2091 ft 184 kts 198°
2026-04-26 18:18 44.38887 8.78714 2780 ft 194 kts 185°
2026-04-26 18:18 44.37536 8.78504 3620 ft 202 kts 182°
2026-04-26 18:19 44.36088 8.78527 4401 ft 213 kts 172°
2026-04-26 18:19 44.34579 8.78873 5178 ft 229 kts 168°
2026-04-26 18:19 44.32990 8.79405 6013 ft 240 kts 161°
2026-04-26 18:19 44.31461 8.80303 7123 ft 238 kts 149°
2026-04-26 18:20 44.30157 8.81685 8273 ft 235 kts 129°
2026-04-26 18:20 44.29370 8.83666 9224 ft 240 kts 105°
2026-04-26 18:20 44.29201 8.86065 9880 ft 261 kts 83°
2026-04-26 18:20 44.29294 8.86902 10135 ft 264 kts 76°
2026-04-26 18:21 44.30662 8.90898 11124 ft 284 kts 54°
2026-04-26 18:21 44.31802 8.93151 12139 ft 288 kts 60°
2026-04-26 18:21 44.32410 8.95913 12685 ft 312 kts 81°
2026-04-26 18:21 44.32637 8.99013 13301 ft 331 kts 84°
2026-04-26 18:22 44.32983 9.03628 14270 ft 350 kts 82°
2026-04-26 18:22 44.33678 9.10559 15653 ft 372 kts 81°
2026-04-26 18:22 44.34489 9.17905 16854 ft 397 kts 81°
2026-04-26 18:22 44.35332 9.25794 17940 ft 421 kts 81°
2026-04-26 18:23 44.36212 9.34033 18921 ft 441 kts 81°
2026-04-26 18:23 44.37101 9.42446 19108 ft 439 kts 81°
2026-04-26 18:23 44.37973 9.50756 19139 ft 437 kts 81°
2026-04-26 18:23 44.38847 9.59139 19140 ft 437 kts 81°
2026-04-26 18:24 44.39711 9.67546 19672 ft 439 kts 81°
2026-04-26 18:24 44.40585 9.76029 21115 ft 445 kts 81°
2026-04-26 18:24 44.42079 9.90637 23254 ft 461 kts 81°
2026-04-26 18:24 44.43909 10.08684 25534 ft 477 kts 81°
2026-04-26 18:25 44.45736 10.27316 27765 ft 490 kts 81°
2026-04-26 18:25 44.47524 10.46099 30751 ft 485 kts 82°
2026-04-26 18:25 44.49284 10.64699 33314 ft 480 kts 82°
2026-04-26 18:25 44.51014 10.83143 35502 ft 477 kts 81°
2026-04-26 18:26 44.52432 10.98642 36065 ft 495 kts 81°
2026-04-26 18:26 44.52968 11.03354 36051 ft 487 kts 78°
2026-04-26 18:26 44.57409 11.35376 36048 ft 480 kts 78°
2026-04-26 18:27 44.62351 11.72090 36094 ft 479 kts 78°
2026-04-26 18:27 44.67186 12.08823 36097 ft 479 kts 78°
2026-04-26 18:28 44.71884 12.45577 36085 ft 478 kts 79°
2026-04-26 18:28 44.75904 12.77945 36091 ft 478 kts 79°
2026-04-26 18:29 44.77028 12.87149 36101 ft 478 kts 79°
2026-04-26 18:29 44.78151 12.96343 36093 ft 478 kts 79°
2026-04-26 18:30 44.79274 13.05551 36095 ft 478 kts 79°
2026-04-26 18:30 44.80397 13.14751 36096 ft 478 kts 79°
2026-04-26 18:31 44.81522 13.23964 36097 ft 478 kts 79°
2026-04-26 18:31 44.82604 13.33180 36092 ft 478 kts 79°
2026-04-26 18:32 44.83687 13.42401 36087 ft 478 kts 80°
2026-04-26 18:32 44.84770 13.51635 36086 ft 479 kts 80°
2026-04-26 18:33 44.85840 13.60869 36082 ft 479 kts 80°
2026-04-26 18:33 44.86901 13.70108 36098 ft 479 kts 80°
2026-04-26 18:34 44.87949 13.79368 36103 ft 479 kts 79°
2026-04-26 18:34 44.88997 13.88623 36105 ft 479 kts 80°
2026-04-26 18:35 44.91087 13.97358 36116 ft 471 kts 52°
2026-04-26 18:35 44.95387 14.04309 36118 ft 474 kts 47°
2026-04-26 18:36 44.99449 14.11658 35847 ft 478 kts 52°
2026-04-26 18:36 45.01367 14.15477 35323 ft 478 kts 52°
2026-04-26 18:36 45.03288 14.19292 34705 ft 477 kts 52°
2026-04-26 18:37 45.05204 14.23085 34099 ft 473 kts 52°
2026-04-26 18:37 45.07112 14.26823 33432 ft 467 kts 52°
2026-04-26 18:37 45.09011 14.30515 32651 ft 463 kts 52°
2026-04-26 18:37 45.10873 14.34195 31868 ft 460 kts 52°
2026-04-26 18:38 45.12736 14.37839 31110 ft 456 kts 52°
2026-04-26 18:38 45.14583 14.41469 30372 ft 453 kts 52°
2026-04-26 18:38 45.16407 14.45068 29568 ft 449 kts 52°
2026-04-26 18:38 45.18218 14.48616 28949 ft 441 kts 52°
2026-04-26 18:39 45.19973 14.52100 28529 ft 429 kts 52°
2026-04-26 18:39 45.21695 14.55476 28082 ft 419 kts 52°
2026-04-26 18:39 45.23163 14.59006 27455 ft 417 kts 66°
2026-04-26 18:39 45.24048 14.62926 26699 ft 418 kts 73°
2026-04-26 18:40 45.24763 14.66909 25953 ft 417 kts 74°
2026-04-26 18:40 45.25520 14.70865 25214 ft 416 kts 73°
2026-04-26 18:40 45.26340 14.74780 24515 ft 414 kts 72°
2026-04-26 18:40 45.27182 14.78669 23819 ft 412 kts 71°
2026-04-26 18:41 45.28028 14.82536 23024 ft 410 kts 71°
2026-04-26 18:41 45.28873 14.86385 22227 ft 407 kts 72°
2026-04-26 18:41 45.29716 14.90201 21453 ft 404 kts 71°
2026-04-26 18:41 45.30556 14.93974 20810 ft 398 kts 71°
2026-04-26 18:42 45.31381 14.97672 20306 ft 389 kts 71°
2026-04-26 18:42 45.32188 15.01280 19824 ft 380 kts 72°
2026-04-26 18:42 45.32954 15.04827 19346 ft 372 kts 72°
2026-04-26 18:42 45.33697 15.08298 18877 ft 364 kts 72°
2026-04-26 18:43 45.34436 15.11684 18496 ft 355 kts 72°
2026-04-26 18:43 45.35143 15.14988 18073 ft 346 kts 72°
2026-04-26 18:43 45.35838 15.18213 17644 ft 338 kts 72°
2026-04-26 18:43 45.36515 15.21381 17227 ft 332 kts 72°
2026-04-26 18:44 45.37186 15.24498 16832 ft 329 kts 72°
2026-04-26 18:44 45.37839 15.27570 16398 ft 324 kts 72°
2026-04-26 18:44 45.38665 15.30513 15876 ft 320 kts 55°
2026-04-26 18:44 45.40240 15.32674 15358 ft 316 kts 35°
2026-04-26 18:45 45.41748 15.34899 14696 ft 315 kts 59°
2026-04-26 18:45 45.42653 15.37732 13918 ft 315 kts 68°
2026-04-26 18:45 45.43471 15.40602 13128 ft 312 kts 66°
2026-04-26 18:45 45.44354 15.43416 12415 ft 314 kts 63°
2026-04-26 18:46 45.45307 15.46223 11713 ft 317 kts 62°
2026-04-26 18:46 45.46302 15.49019 11060 ft 317 kts 60°
2026-04-26 18:46 45.47310 15.51789 10510 ft 313 kts 60°
2026-04-26 18:46 45.48322 15.54513 9954 ft 310 kts 60°
2026-04-26 18:47 45.49326 15.57206 9357 ft 307 kts 60°
2026-04-26 18:47 45.50320 15.59874 8770 ft 304 kts 60°
2026-04-26 18:47 45.51313 15.62512 8174 ft 301 kts 60°
2026-04-26 18:47 45.52309 15.65121 7620 ft 299 kts 60°
2026-04-26 18:48 45.53305 15.67689 7056 ft 293 kts 60°
2026-04-26 18:48 45.54283 15.70202 6495 ft 288 kts 60°
2026-04-26 18:48 45.55241 15.72677 5929 ft 283 kts 61°
2026-04-26 18:48 45.55976 15.75238 5364 ft 278 kts 70°
2026-04-26 18:49 45.56859 15.77659 4820 ft 272 kts 60°
2026-04-26 18:49 45.57836 15.79876 4467 ft 256 kts 59°
2026-04-26 18:49 45.58740 15.81966 4135 ft 241 kts 60°
2026-04-26 18:49 45.59589 15.83985 3818 ft 234 kts 58°
2026-04-26 18:50 45.60611 15.85753 3488 ft 230 kts 49°
2026-04-26 18:50 45.61693 15.87389 3195 ft 224 kts 49°
2026-04-26 18:50 45.62732 15.88921 3057 ft 206 kts 49°
2026-04-26 18:50 45.63690 15.90322 3013 ft 187 kts 49°
2026-04-26 18:51 45.64533 15.91548 3003 ft 161 kts 49°
2026-04-26 18:51 45.65280 15.92661 2761 ft 152 kts 50°
2026-04-26 18:51 45.65975 15.93678 2494 ft 133 kts 50°
2026-04-26 18:51 45.66591 15.94599 2329 ft 125 kts 50°
2026-04-26 18:52 45.67183 15.95489 2156 ft 122 kts 50°
2026-04-26 18:52 45.67576 15.96069 2051 ft 121 kts 50°
2026-04-26 18:52 45.68343 15.97212 1822 ft 119 kts 50°
2026-04-26 18:52 45.68901 15.98067 1653 ft 116 kts 50°
2026-04-26 18:53 45.69407 15.98949 1475 ft 116 kts 53°
2026-04-26 18:53 45.69902 15.99883 1384 ft 121 kts 54°
2026-04-26 18:53 45.70419 16.00860 1215 ft 124 kts 52°
2026-04-26 18:53 45.70992 16.01812 1003 ft 128 kts 48°
2026-04-26 18:54 45.71588 16.02739 880 ft 125 kts 48°
2026-04-26 18:54 45.72166 16.03671 685 ft 125 kts 47°
2026-04-26 18:54 45.72754 16.04549 529 ft 120 kts 46°
2026-04-26 18:54 45.73311 16.05393 392 ft 114 kts 47°
2026-04-26 18:55 45.73819 16.06160 369 ft 94 kts 46°
2026-04-26 18:55 45.74204 16.06744 368 ft 71 kts 47°
2026-04-26 18:55 45.74511 16.07214 363 ft 51 kts 48°
2026-04-26 18:55 45.74666 16.07453 363 ft 18 kts 52°
2026-04-26 18:56 45.74629 16.07579 364 ft 12 kts 139°
2026-04-26 18:56 45.74595 16.07622 364 ft 0 kts 137°
2026-04-26 18:57 45.74540 16.07638 365 ft 13 kts 205°
2026-04-26 18:57 45.74463 16.07528 365 ft 17 kts 226°
2026-04-26 18:58 45.74379 16.07401 365 ft 18 kts 226°
2026-04-26 18:58 45.74287 16.07263 365 ft 20 kts 226°
2026-04-26 18:58 45.74188 16.07114 369 ft 21 kts 226°
2026-04-26 18:58 45.74084 16.06952 367 ft 23 kts 227°
2026-04-26 18:59 45.73972 16.06782 365 ft 24 kts 226°
2026-04-26 18:59 45.73854 16.06603 365 ft 25 kts 226°
2026-04-26 18:59 45.73742 16.06438 364 ft 15 kts 225°
2026-04-26 18:59 45.73671 16.06326 368 ft 13 kts 220°
2026-04-26 19:00 45.73608 16.06373 367 ft 2 kts 140°
2026-04-26 19:00 45.73594 16.06390 365 ft 0 kts 140°
2026-04-26 19:01 45.73594 16.06391 365 ft 1 kts 140°
2026-04-26 19:01 45.73587 16.06399 365 ft 0 kts 140°